When you browse on this site, cookies collect data to enhance your experience and personalize the content and advertising you see.
Visit our Privacy Policy to learn more. By continuing to use the site, you agree to this use of cookies and data.
  • în România
  • Lista ţărilor
  • Pe 7 zile
  • Temperatura apei
  • Hartă satelitară
  • Meteo pe hartă
  • Widget-uri
  • user-avatar
    Intrare

    Meteo pe oră la Zhiguli

    Astăzi, 25 Martie, Luni

    Timp Temperatura Precipitaţii Vânt Presiune Umiditate
    00:00 -2°C° 0.8 mm 5 m/s 737 mmHg 94%
    01:00 -2°C° 1.6 mm 5 m/s 736 mmHg 95%
    02:00 -1°C° 1.6 mm 5 m/s 735 mmHg 96%
    03:00 -1°C° 1.6 mm 4 m/s 734 mmHg 97%
    04:00 -1°C° 0.1 mm 4 m/s 733 mmHg 96%
    05:00 -2°C° 0.1 mm 4 m/s 732 mmHg 96%
    06:00 -2°C° 0.1 mm 4 m/s 731 mmHg 95%
    07:00 -2°C° 0.2 mm 5 m/s 731 mmHg 95%
    08:00 -2°C° 0.2 mm 5 m/s 731 mmHg 95%
    09:00 -2°C° 0.2 mm 5 m/s 731 mmHg 95%
    10:00 -3°C° 0.4 mm 6 m/s 732 mmHg 93%
    11:00 -3°C° 0.4 mm 7 m/s 732 mmHg 91%
    12:00 -4°C° 0.4 mm 8 m/s 732 mmHg 89%
    13:00 -4°C° 0.3 mm 8 m/s 733 mmHg 88%
    14:00 -3°C° 0.3 mm 7 m/s 734 mmHg 88%
    15:00 -3°C° 0.3 mm 7 m/s 735 mmHg 87%
    16:00 -3°C° 0.2 mm 6 m/s 736 mmHg 87%
    17:00 -2°C° 0.2 mm 6 m/s 736 mmHg 88%
    18:00 -1°C° 0.2 mm 5 m/s 737 mmHg 88%
    19:00 -2°C° 0.1 mm 5 m/s 738 mmHg 87%
    20:00 -2°C° 0.1 mm 5 m/s 739 mmHg 86%
    21:00 -4°C° 0.1 mm 5 m/s 739 mmHg 86%
    22:00 -4°C° 0 mm 5 m/s 740 mmHg 87%
    23:00 -4°C° 0 mm 5 m/s 741 mmHg 88%

    Mâine, 26 Martie, Marţi

    Timp Temperatura Precipitaţii Vânt Presiune Umiditate
    00:00 -5°C° 0 mm 5 m/s 741 mmHg 88%
    01:00 -5°C° 0 mm 5 m/s 742 mmHg 89%
    02:00 -4°C° 0 mm 4 m/s 743 mmHg 90%
    03:00 -5°C° 0 mm 4 m/s 743 mmHg 90%
    04:00 -5°C° 0 mm 4 m/s 744 mmHg 91%
    05:00 -5°C° 0 mm 4 m/s 744 mmHg 92%
    06:00 -6°C° 0 mm 3 m/s 745 mmHg 92%
    07:00 -5°C° 0 mm 3 m/s 745 mmHg 92%
    08:00 -4°C° 0 mm 3 m/s 745 mmHg 91%
    09:00 -2°C° 0 mm 3 m/s 746 mmHg 90%
    10:00 -3°C° 0 mm 4 m/s 746 mmHg 92%
    11:00 -2°C° 0 mm 4 m/s 746 mmHg 93%
    12:00 -2°C° 0 mm 4 m/s 747 mmHg 95%
    13:00 -2°C° 0 mm 4 m/s 746 mmHg 93%
    14:00 -2°C° 0 mm 4 m/s 746 mmHg 90%
    15:00 -2°C° 0 mm 4 m/s 746 mmHg 88%
    16:00 -2°C° 0 mm 4 m/s 745 mmHg 88%
    17:00 -2°C° 0 mm 4 m/s 745 mmHg 88%
    18:00 -3°C° 0 mm 4 m/s 745 mmHg 88%
    19:00 -2°C° 0.4 mm 5 m/s 744 mmHg 88%
    20:00 -3°C° 0.4 mm 6 m/s 744 mmHg 88%
    21:00 -2°C° 0.4 mm 6 m/s 743 mmHg 89%
    22:00 -2°C° 1.1 mm 6 m/s 743 mmHg 90%
    23:00 -2°C° 1.1 mm 7 m/s 743 mmHg 91%

    Poimâine, 27 Martie, Miercuri

    Timp Temperatura Precipitaţii Vânt Presiune Umiditate
    00:00 -1°C° 1.1 mm 7 m/s 742 mmHg 93%
    01:00 -1°C° 1.3 mm 7 m/s 742 mmHg 92%
    02:00 -1°C° 1.3 mm 7 m/s 742 mmHg 92%
    03:00 -1°C° 1.3 mm 7 m/s 742 mmHg 91%
    04:00 -1°C° 0.8 mm 7 m/s 742 mmHg 92%
    05:00 -1°C° 0.8 mm 7 m/s 742 mmHg 92%
    06:00 -1°C° 0.8 mm 6 m/s 742 mmHg 92%
    07:00 -1°C° 1 mm 6 m/s 742 mmHg 93%
    08:00 -2°C° 1 mm 6 m/s 742 mmHg 94%
    09:00 -2°C° 1 mm 6 m/s 742 mmHg 95%
    10:00 -2°C° 1 mm 6 m/s 742 mmHg 96%
    11:00 -2°C° 1 mm 6 m/s 743 mmHg 96%
    12:00 -2°C° 1 mm 6 m/s 743 mmHg 97%
    13:00 -1°C° 0.3 mm 5 m/s 743 mmHg 98%
    14:00 -1°C° 0.3 mm 4 m/s 744 mmHg 98%
    15:00 +1°C° 0.3 mm 3 m/s 744 mmHg 99%
    16:00 0°C° 0 mm 3 m/s 744 mmHg 98%
    17:00 0°C° 0 mm 3 m/s 745 mmHg 97%
    18:00 -1°C° 0 mm 2 m/s 745 mmHg 97%
    19:00 -1°C° 0 mm 2 m/s 745 mmHg 96%
    20:00 -2°C° 0 mm 2 m/s 746 mmHg 95%
    21:00 -2°C° 0 mm 2 m/s 746 mmHg 95%
    22:00 -1°C° 0 mm 1 m/s 746 mmHg 94%
    23:00 -1°C° 0 mm 1 m/s 746 mmHg 92%

    28 Martie, Joi

    Timp Temperatura Precipitaţii Vânt Presiune Umiditate
    00:00 -1°C° 0 mm 1 m/s 746 mmHg 91%
    01:00 -2°C° 0 mm 1 m/s 746 mmHg 89%
    02:00 -2°C° 0 mm 1 m/s 746 mmHg 87%
    03:00 -2°C° 0 mm 1 m/s 746 mmHg 85%
    04:00 -2°C° 0 mm 1 m/s 746 mmHg 84%
    05:00 -2°C° 0 mm 1 m/s 746 mmHg 83%
    06:00 -2°C° 0 mm 1 m/s 746 mmHg 82%
    07:00 -1°C° 0 mm 1 m/s 746 mmHg 80%
    08:00 0°C° 0 mm 1 m/s 746 mmHg 77%
    09:00 0°C° 0 mm 1 m/s 746 mmHg 74%
    10:00 -1°C° 0 mm 2 m/s 746 mmHg 74%
    11:00 +1°C° 0 mm 2 m/s 746 mmHg 74%
    12:00 +1°C° 0 mm 2 m/s 746 mmHg 74%
    13:00 +1°C° 0 mm 2 m/s 746 mmHg 75%
    14:00 0°C° 0 mm 3 m/s 746 mmHg 76%
    15:00 0°C° 0 mm 3 m/s 746 mmHg 77%
    16:00 0°C° 0 mm 3 m/s 746 mmHg 81%
    17:00 -1°C° 0 mm 3 m/s 746 mmHg 85%
    18:00 -1°C° 0 mm 3 m/s 746 mmHg 89%
    19:00 -2°C° 0 mm 3 m/s 746 mmHg 90%
    20:00 -2°C° 0 mm 3 m/s 747 mmHg 91%
    21:00 -3°C° 0 mm 4 m/s 747 mmHg 93%
    22:00 -3°C° 0 mm 4 m/s 747 mmHg 92%
    23:00 -3°C° 0 mm 4 m/s 747 mmHg 91%

    29 Martie, Vineri

    Timp Temperatura Precipitaţii Vânt Presiune Umiditate
    00:00 -4°C° 0 mm 5 m/s 747 mmHg 90%
    01:00 -5°C° 0 mm 5 m/s 747 mmHg 89%
    02:00 -4°C° 0 mm 4 m/s 748 mmHg 88%
    03:00 -5°C° 0 mm 4 m/s 748 mmHg 87%
    04:00 -5°C° 0 mm 4 m/s 748 mmHg 86%
    05:00 -5°C° 0 mm 4 m/s 748 mmHg 85%
    06:00 -5°C° 0 mm 3 m/s 748 mmHg 84%
    07:00 -5°C° 0 mm 3 m/s 748 mmHg 81%
    08:00 -4°C° 0 mm 3 m/s 748 mmHg 78%
    09:00 -2°C° 0 mm 3 m/s 748 mmHg 75%
    10:00 -1°C° 0 mm 3 m/s 748 mmHg 71%
    11:00 -2°C° 0 mm 4 m/s 748 mmHg 67%
    12:00 -1°C° 0 mm 4 m/s 747 mmHg 63%
    13:00 -1°C° 0 mm 4 m/s 747 mmHg 64%
    14:00 -1°C° 0 mm 4 m/s 746 mmHg 65%
    15:00 -1°C° 0 mm 5 m/s 745 mmHg 66%
    16:00 -1°C° 0.2 mm 5 m/s 745 mmHg 73%
    17:00 -2°C° 0.2 mm 5 m/s 744 mmHg 79%
    18:00 -2°C° 0.2 mm 5 m/s 744 mmHg 85%
    19:00 -2°C° 0.2 mm 5 m/s 744 mmHg 87%
    20:00 -3°C° 0.2 mm 4 m/s 743 mmHg 90%
    21:00 -3°C° 0.2 mm 4 m/s 743 mmHg 92%
    22:00 -2°C° 0.1 mm 3 m/s 743 mmHg 93%
    23:00 -2°C° 0.1 mm 3 m/s 743 mmHg 94%

    30 Martie, Sâmbătă

    Timp Temperatura Precipitaţii Vânt Presiune Umiditate
    00:00 -2°C° 0.1 mm 2 m/s 744 mmHg 95%
    01:00 -2°C° 0 mm 2 m/s 744 mmHg 95%
    02:00 0°C° 0 mm 1 m/s 744 mmHg 95%
    03:00 0°C° 0 mm 1 m/s 745 mmHg 95%
    04:00 0°C° 0 mm 1 m/s 745 mmHg 94%
    05:00 0°C° 0 mm 1 m/s 746 mmHg 94%
    06:00 0°C° 0 mm 1 m/s 746 mmHg 94%
    07:00 0°C° 0 mm 1 m/s 747 mmHg 91%
    08:00 +1°C° 0 mm 1 m/s 747 mmHg 88%
    09:00 +1°C° 0 mm 1 m/s 748 mmHg 86%
    10:00 +2°C° 0 mm 1 m/s 748 mmHg 82%
    11:00 +2°C° 0 mm 1 m/s 748 mmHg 79%
    12:00 +3°C° 0 mm 1 m/s 748 mmHg 76%
    13:00 +2°C° 0 mm 2 m/s 748 mmHg 76%
    14:00 +2°C° 0 mm 2 m/s 749 mmHg 77%
    15:00 +2°C° 0 mm 2 m/s 749 mmHg 78%
    16:00 +2°C° 0 mm 2 m/s 749 mmHg 81%
    17:00 +1°C° 0 mm 2 m/s 749 mmHg 84%
    18:00 +1°C° 0 mm 2 m/s 749 mmHg 87%
    19:00 -1°C° 0 mm 2 m/s 749 mmHg 88%
    20:00 -2°C° 0 mm 2 m/s 749 mmHg 90%
    21:00 -2°C° 0 mm 2 m/s 749 mmHg 92%
    22:00 -2°C° 0 mm 2 m/s 749 mmHg 92%
    23:00 -2°C° 0 mm 2 m/s 749 mmHg 93%
    Arată mai mult